This is the latest recevied weather packets stored in our database for station/object K7YVO. If no packets are shown the sender has not sent any weather packets the latest 10 day(s).
| Time | Temp. | Humidity | Pressure | Rain* | Wind** | Luminosity | Snow |
|---|---|---|---|---|---|---|---|
| 1778093038 | 14.44° C | 84% | 1023.3 hPa | 0 mm | - | 251 W/m² | - |
| 1778092735 | 14.44° C | 85% | 1023.1 hPa | 0 mm | - | 191 W/m² | - |
| 1778092430 | 14.44° C | 85% | 1023.2 hPa | 0 mm | - | 170 W/m² | - |
| 1778092128 | 14.44° C | 85% | 1023.3 hPa | 0 mm | - | 113 W/m² | - |
| 1778091825 | 13.89° C | 85% | 1023.3 hPa | 0 mm | - | 126 W/m² | - |
| 1778091522 | 13.89° C | 85% | 1023.1 hPa | 0 mm | - | 114 W/m² | - |
| 1778091220 | 13.89° C | 86% | 1023.2 hPa | 0 mm | - | 124 W/m² | - |
| 1778090917 | 13.89° C | 86% | 1023.1 hPa | 0 mm | - | 137 W/m² | - |
| 1778090613 | 13.89° C | 86% | 1023.1 hPa | 0 mm | - | 157 W/m² | - |
| 1778090309 | 13.89° C | 86% | 1023.1 hPa | 0 mm | - | 174 W/m² | - |
| 1778090007 | 13.89° C | 88% | 1023.1 hPa | 0 mm | - | 166 W/m² | - |
| 1778089704 | 13.89° C | 88% | 1022.9 hPa | 0 mm | - | 150 W/m² | - |
| 1778089401 | 13.33° C | 88% | 1022.9 hPa | 0 mm | - | 122 W/m² | - |
| 1778089098 | 13.33° C | 89% | 1023 hPa | 0 mm | - | 180 W/m² | - |
| 1778088795 | 13.33° C | 88% | 1022.9 hPa | 0 mm | - | 138 W/m² | - |
| 1778088492 | 13.33° C | 88% | 1023.1 hPa | 0 mm | - | 132 W/m² | - |
| 1778088188 | 13.33° C | 88% | 1023 hPa | 0 mm | - | 106 W/m² | - |
| 1778087887 | 13.89° C | 87% | 1022.9 hPa | 0 mm | - | 90 W/m² | - |
| 1778087583 | 13.89° C | 88% | 1022.8 hPa | 0 mm | - | 112 W/m² | - |
| 1778087281 | 13.89° C | 87% | 1023 hPa | 0 mm | - | 108 W/m² | - |
| 1778086977 | 13.89° C | 87% | 1022.8 hPa | 0 mm | - | 99 W/m² | - |
| 1778086675 | 13.89° C | 87% | 1022.9 hPa | 0 mm | - | 79 W/m² | - |
| 1778086373 | 13.89° C | 86% | 1022.8 hPa | 0 mm | - | 79 W/m² | - |
| 1778086069 | 13.89° C | 86% | 1022.6 hPa | 0 mm | - | 89 W/m² | - |
| 1778085766 | 14.44° C | 86% | 1022.8 hPa | 0 mm | - | 88 W/m² | - |
* Rain latest hour (hover to see other rain measurements)
** Current wind speed in m/s (hover to see current wind gust speed)